Time,TemperatureF,DewpointF,PressureIn,WindDirection,WindDirectionDegrees,WindSpeedMPH,WindSpeedGustMPH,Humidity,HourlyPrecipIn,Conditions,Clouds,dailyrainin,SoftwareType,DateUTC
2013-02-19 00:00:00,31.8,27.8,30.10,WNW,292,0.0,1.0,85,0.00,OVC,,0.00,WeatherDisplay:10.37,2013-02-18 23:00:00,
2013-02-19 00:10:00,31.8,27.8,30.10,WNW,292,0.0,0.0,85,0.00,OVC,,0.00,WeatherDisplay:10.37,2013-02-18 23:10:00,
2013-02-19 00:20:00,31.8,27.8,30.10,WNW,292,0.0,0.0,85,0.00,OVC,,0.00,WeatherDisplay:10.37,2013-02-18 23:20:00,
2013-02-19 00:30:00,31.8,27.8,30.09,WNW,292,0.0,0.0,85,0.00,OVC,,0.00,WeatherDisplay:10.37,2013-02-18 23:30:00,
2013-02-19 00:40:00,31.6,27.6,30.09,WNW,292,0.0,0.0,85,0.00,OVC,,0.00,WeatherDisplay:10.37,2013-02-18 23:40:00,
2013-02-19 00:50:00,31.6,27.4,30.08,WNW,292,1.0,1.0,84,0.00,OVC,,0.00,WeatherDisplay:10.37,2013-02-18 23:50:00,
2013-02-19 01:10:00,31.5,27.2,30.08,WNW,292,0.0,1.0,84,0.00,OVC,,0.00,WeatherDisplay:10.37,2013-02-19 00:10:00,
2013-02-19 01:20:00,31.3,27.0,30.08,WNW,292,0.0,0.0,84,0.00,OVC,,0.00,WeatherDisplay:10.37,2013-02-19 00:20:00,
2013-02-19 01:30:00,31.3,27.0,30.07,WNW,292,0.0,0.0,84,0.00,OVC,,0.00,WeatherDisplay:10.37,2013-02-19 00:30:00,
2013-02-19 01:50:00,31.6,27.1,30.06,NW,306,0.0,0.0,83,0.00,OVC,,0.00,WeatherDisplay:10.37,2013-02-19 00:50:00,
2013-02-19 02:00:00,31.6,27.1,30.06,SE,135,1.0,1.0,83,0.00,OVC,,0.00,WeatherDisplay:10.37,2013-02-19 01:00:00,
2013-02-19 02:10:00,31.6,27.1,30.06,ESE,120,5.0,5.0,83,0.00,OVC,,0.00,WeatherDisplay:10.37,2013-02-19 01:10:00,
2013-02-19 02:21:00,31.6,27.1,30.05,SE,125,2.0,5.0,83,0.00,OVC,,0.00,WeatherDisplay:10.37,2013-02-19 01:21:00,
2013-02-19 02:30:00,31.6,26.8,30.05,ESE,121,1.0,2.0,82,0.00,OVC,,0.00,WeatherDisplay:10.37,2013-02-19 01:30:00,
2013-02-19 02:40:00,31.6,26.5,30.04,SE,128,2.0,4.0,81,0.00,OVC,,0.00,WeatherDisplay:10.37,2013-02-19 01:40:00,
2013-02-19 02:50:00,31.8,26.7,30.04,ESE,112,3.0,3.0,81,0.00,OVC,,0.00,WeatherDisplay:10.37,2013-02-19 01:50:00,
2013-02-19 03:00:00,31.8,26.4,30.03,ESE,120,1.0,3.0,80,0.00,OVC,,0.00,WeatherDisplay:10.37,2013-02-19 02:00:00,
2013-02-19 03:11:00,31.8,26.0,30.03,WNW,292,0.0,1.0,79,0.00,OVC,,0.00,WeatherDisplay:10.37,2013-02-19 02:11:00,
2013-02-19 03:20:00,31.8,26.4,30.02,WNW,303,0.0,0.0,80,0.00,OVC,,0.00,WeatherDisplay:10.37,2013-02-19 02:20:00,
2013-02-19 03:31:00,32.2,26.4,30.01,SE,138,0.0,1.0,79,0.00,OVC,,0.00,WeatherDisplay:10.37,2013-02-19 02:31:00,
2013-02-19 03:40:00,32.2,26.1,30.01,SSE,162,2.0,2.0,78,0.00,OVC,,0.00,WeatherDisplay:10.37,2013-02-19 02:40:00,
2013-02-19 03:50:00,32.4,26.3,30.01,NW,320,0.0,2.0,78,0.00,OVC,,0.00,WeatherDisplay:10.37,2013-02-19 02:50:00,
2013-02-19 04:00:00,32.4,26.3,30.00,ESE,112,2.0,2.0,78,0.00,OVC,,0.00,WeatherDisplay:10.37,2013-02-19 03:00:00,
2013-02-19 04:20:00,32.5,26.1,30.00,ESE,111,0.0,5.0,77,0.00,OVC,,0.00,WeatherDisplay:10.37,2013-02-19 03:20:00,
2013-02-19 04:30:00,32.7,26.3,29.99,ESE,118,3.0,3.0,77,0.00,OVC,,0.00,WeatherDisplay:10.37,2013-02-19 03:30:00,
2013-02-19 04:41:00,32.7,26.3,29.99,ESE,117,2.0,3.0,77,0.00,OVC,,0.00,WeatherDisplay:10.37,2013-02-19 03:41:00,
2013-02-19 04:51:00,32.7,26.3,29.99,ESE,113,0.0,3.0,77,0.00,OVC,,0.00,WeatherDisplay:10.37,2013-02-19 03:51:00,
2013-02-19 05:00:00,32.7,26.3,29.98,WNW,295,3.0,4.0,77,0.00,OVC,,0.00,WeatherDisplay:10.37,2013-02-19 04:00:00,
2013-02-19 05:10:00,32.7,26.0,29.98,WNW,292,6.0,6.0,76,0.00,OVC,,0.00,WeatherDisplay:10.37,2013-02-19 04:10:00,
2013-02-19 05:21:00,32.7,26.0,29.98,WNW,292,3.0,6.0,76,0.00,OVC,,0.00,WeatherDisplay:10.37,2013-02-19 04:21:00,
2013-02-19 05:50:00,32.9,26.2,29.96,NW,319,0.0,4.0,76,0.00,OVC,,0.00,WeatherDisplay:10.37,2013-02-19 04:50:00,
2013-02-19 06:00:00,32.9,26.2,29.96,NW,321,0.0,0.0,76,0.00,BKN,,0.00,WeatherDisplay:10.37,2013-02-19 05:00:00,
2013-02-19 06:10:00,32.7,26.3,29.96,WNW,298,2.0,2.0,77,0.00,BKN,,0.00,WeatherDisplay:10.37,2013-02-19 05:10:00,
2013-02-19 06:20:00,32.7,26.3,29.95,NW,307,3.0,5.0,77,0.00,-SN,,0.00,WeatherDisplay:10.37,2013-02-19 05:20:00,
2013-02-19 06:30:00,32.4,26.3,29.95,WNW,298,2.0,3.0,78,0.00,-SN,,0.00,WeatherDisplay:10.37,2013-02-19 05:30:00,
2013-02-19 06:40:00,32.2,26.7,29.95,WNW,292,3.0,5.0,80,0.00,-SN,,0.00,WeatherDisplay:10.37,2013-02-19 05:40:00,
2013-02-19 06:50:00,31.8,26.7,29.95,WNW,292,2.0,3.0,81,0.00,-SN,,0.00,WeatherDisplay:10.37,2013-02-19 05:50:00,
2013-02-19 07:00:00,31.5,26.6,29.95,NW,305,1.0,2.0,82,0.00,-SN,,0.00,WeatherDisplay:10.37,2013-02-19 06:00:00,
2013-02-19 07:11:00,31.3,26.7,29.95,WNW,301,0.0,2.0,83,0.00,-SN,,0.00,WeatherDisplay:10.37,2013-02-19 06:11:00,
2013-02-19 07:20:00,30.9,26.7,29.95,WNW,296,0.0,2.0,84,0.00,-SN,,0.00,WeatherDisplay:10.37,2013-02-19 06:20:00,
2013-02-19 07:30:00,30.9,26.9,29.95,WNW,297,1.0,5.0,85,0.00,-SN,,0.00,WeatherDisplay:10.37,2013-02-19 06:30:00,
2013-02-19 07:40:00,30.7,27.0,29.94,WNW,299,2.0,2.0,86,0.00,-SN,,0.00,WeatherDisplay:10.37,2013-02-19 06:40:00,
2013-02-19 08:00:00,30.7,27.3,29.94,SSW,194,0.0,2.0,87,0.00,BKN,,0.00,WeatherDisplay:10.37,2013-02-19 07:00:00,
2013-02-19 08:10:00,30.7,27.6,29.93,SE,143,0.0,2.0,88,0.00,OVC,,0.00,WeatherDisplay:10.37,2013-02-19 07:10:00,
2013-02-19 08:20:00,30.9,27.8,29.93,SE,143,3.0,3.0,88,0.00,OVC,,0.00,WeatherDisplay:10.37,2013-02-19 07:20:00,
2013-02-19 08:30:00,30.9,27.8,29.93,SE,136,0.0,3.0,88,0.00,OVC,,0.00,WeatherDisplay:10.37,2013-02-19 07:30:00,
2013-02-19 08:40:00,30.9,28.1,29.93,NW,306,3.0,3.0,89,0.00,BKN,,0.00,WeatherDisplay:10.37,2013-02-19 07:40:00,
2013-02-19 08:51:00,31.1,28.2,29.92,ENE,68,1.0,4.0,89,0.00,BKN,,0.00,WeatherDisplay:10.37,2013-02-19 07:51:00,
2013-02-19 09:00:00,31.1,28.2,29.92,NNW,345,0.0,1.0,89,0.00,BKN,,0.00,WeatherDisplay:10.37,2013-02-19 08:00:00,
2013-02-19 09:20:00,31.1,28.2,29.91,NW,314,3.0,3.0,89,0.00,BKN,,0.00,WeatherDisplay:10.37,2013-02-19 08:20:00,
2013-02-19 09:40:00,31.3,28.4,29.91,SE,135,0.0,3.0,89,0.00,BKN,,0.00,WeatherDisplay:10.37,2013-02-19 08:40:00,
2013-02-19 09:50:00,31.3,28.4,29.91,SE,129,1.0,1.0,89,0.00,BKN,,0.00,WeatherDisplay:10.37,2013-02-19 08:50:00,
2013-02-19 10:00:00,34.2,30.7,29.83,SE,135,0.0,0.0,87,0.00,,CL,0.12,WeatherDisplay:10.37,2013-02-19 09:00:00,
2013-02-19 10:10:00,34.2,30.7,29.84,WNW,293,1.0,1.0,87,0.00,CL,CL,0.12,WeatherDisplay:10.37,2013-02-19 09:10:00,
2013-02-19 10:20:00,31.8,28.9,29.90,WNW,293,2.0,5.0,89,0.00,BKN,,0.00,WeatherDisplay:10.37,2013-02-19 09:20:00,
2013-02-19 10:30:00,31.8,28.9,29.89,WNW,292,0.0,2.0,89,0.00,BKN,,0.00,WeatherDisplay:10.37,2013-02-19 09:30:00,
2013-02-19 10:40:00,32.0,29.1,29.89,WNW,286,0.0,0.0,89,0.00,BKN,,0.00,WeatherDisplay:10.37,2013-02-19 09:40:00,
2013-02-19 10:50:00,31.8,28.9,29.89,WSW,257,0.0,3.0,89,0.00,BKN,,0.00,WeatherDisplay:10.37,2013-02-19 09:50:00,
2013-02-19 11:00:00,34.2,30.1,29.85,WNW,302,2.0,2.0,85,0.00,CLR,,0.12,WeatherDisplay:10.37,2013-02-19 10:00:00,
2013-02-19 11:01:00,32.2,29.3,29.88,West,271,5.0,5.0,89,0.00,BKN,,0.00,WeatherDisplay:10.37,2013-02-19 10:01:00,
2013-02-19 11:02:00,34.2,30.1,29.85,NW,315,2.0,2.0,85,0.00,CL,CL,0.12,WeatherDisplay:10.37,2013-02-19 10:02:00,
2013-02-19 11:10:00,32.7,29.3,29.88,NW,313,0.0,5.0,87,0.00,BKN,,0.00,WeatherDisplay:10.37,2013-02-19 10:10:00,
2013-02-19 11:20:00,32.9,29.7,29.88,NW,313,0.0,0.0,88,0.00,BKN,,0.00,WeatherDisplay:10.37,2013-02-19 10:20:00,
2013-02-19 11:30:00,32.7,29.3,29.88,NW,309,0.0,3.0,87,0.00,BKN,,0.00,WeatherDisplay:10.37,2013-02-19 10:30:00,
2013-02-19 11:40:00,32.7,29.6,29.88,SE,127,1.0,1.0,88,0.00,BKN,,0.00,WeatherDisplay:10.37,2013-02-19 10:40:00,
2013-02-19 11:50:00,32.9,29.7,29.87,NNW,333,0.0,1.0,88,0.00,BKN,,0.00,WeatherDisplay:10.37,2013-02-19 10:50:00,
2013-02-19 12:00:00,32.9,29.7,29.87,WNW,299,5.0,7.0,88,0.00,BKN,,0.00,WeatherDisplay:10.37,2013-02-19 11:00:00,
2013-02-19 12:10:00,32.9,29.7,29.86,NW,311,2.0,7.0,88,0.00,BKN,,0.00,WeatherDisplay:10.37,2013-02-19 11:10:00,
2013-02-19 12:20:00,33.1,29.9,29.86,SSE,160,0.0,2.0,88,0.00,BKN,,0.00,WeatherDisplay:10.37,2013-02-19 11:20:00,
2013-02-19 12:30:00,33.1,29.9,29.86,WNW,291,0.0,2.0,88,0.00,BKN,,0.00,WeatherDisplay:10.37,2013-02-19 11:30:00,
2013-02-19 12:40:00,33.1,29.9,29.86,NW,326,1.0,3.0,88,0.00,BKN,,0.00,WeatherDisplay:10.37,2013-02-19 11:40:00,
2013-02-19 12:50:00,33.1,29.9,29.85,WNW,300,5.0,5.0,88,0.00,BKN,,0.00,WeatherDisplay:10.37,2013-02-19 11:50:00,
2013-02-19 13:00:00,32.2,28.2,29.91,WNW,292,0.0,1.0,85,0.00,CLR,,0.12,WeatherDisplay:10.37,2013-02-19 12:00:00,
2013-02-19 13:01:00,33.4,30.0,29.85,WNW,300,6.0,7.0,87,0.00,OVC,,0.00,WeatherDisplay:10.37,2013-02-19 12:01:00,
2013-02-19 13:10:00,33.6,29.9,29.85,WNW,298,5.0,11.0,86,0.00,OVC,,0.00,WeatherDisplay:10.37,2013-02-19 12:10:00,
2013-02-19 13:20:00,32.0,28.0,29.91,NNW,337,3.0,3.0,85,0.00,CLR,,0.12,WeatherDisplay:10.37,2013-02-19 12:20:00,
2013-02-19 13:30:00,34.0,30.2,29.85,NW,312,0.0,11.0,86,0.00,OVC,,0.00,WeatherDisplay:10.37,2013-02-19 12:30:00,
2013-02-19 13:40:00,34.0,30.2,29.84,NW,313,10.0,11.0,86,0.00,BKN,,0.00,WeatherDisplay:10.37,2013-02-19 12:40:00,
2013-02-19 13:50:00,31.6,27.1,29.92,NW,322,3.0,3.0,83,0.00,CLR,,0.12,WeatherDisplay:10.37,2013-02-19 12:50:00,
2013-02-19 13:51:00,34.3,30.6,29.84,WNW,292,3.0,11.0,86,0.00,BKN,,0.00,WeatherDisplay:10.37,2013-02-19 12:51:00,
2013-02-19 14:00:00,34.3,30.6,29.84,NW,304,1.0,3.0,86,0.02,-SN,,0.02,WeatherDisplay:10.37,2013-02-19 13:00:00,
2013-02-19 14:10:00,31.3,26.7,29.92,WSW,248,1.0,1.0,83,0.00,CLR,,0.12,WeatherDisplay:10.37,2013-02-19 13:10:00,
2013-02-19 14:20:00,34.0,30.5,29.84,SSW,192,0.0,2.0,87,0.02,-SN,,0.04,WeatherDisplay:10.37,2013-02-19 13:20:00,
2013-02-19 14:30:00,34.0,30.8,29.83,NW,304,0.0,2.0,88,0.00,-SN,,0.04,WeatherDisplay:10.37,2013-02-19 13:30:00,
2013-02-19 14:40:00,33.6,30.4,29.83,WNW,303,3.0,4.0,88,0.02,-SN,,0.06,WeatherDisplay:10.37,2013-02-19 13:40:00,
2013-02-19 14:50:00,33.6,30.7,29.83,NW,315,0.0,4.0,89,0.00,-SN,,0.06,WeatherDisplay:10.37,2013-02-19 13:50:00,
2013-02-19 15:00:00,30.2,25.9,29.93,WSW,248,1.0,1.0,84,0.00,CLR,,0.12,WeatherDisplay:10.37,2013-02-19 14:00:00,
2013-02-19 15:10:00,30.0,25.8,29.94,WSW,248,2.0,2.0,84,0.00,CLR,,0.12,WeatherDisplay:10.37,2013-02-19 14:10:00,
2013-02-19 15:11:00,33.6,31.0,29.84,NW,306,0.0,2.0,90,0.02,-SN,,0.08,WeatherDisplay:10.37,2013-02-19 14:11:00,
2013-02-19 15:20:00,34.0,30.8,29.83,WNW,301,3.0,4.0,88,0.00,OVC,,0.08,WeatherDisplay:10.37,2013-02-19 14:20:00,
2013-02-19 15:30:00,34.0,30.8,29.83,WNW,293,3.0,4.0,88,0.02,RA,,0.10,WeatherDisplay:10.37,2013-02-19 14:30:00,
2013-02-19 15:40:00,30.2,25.9,29.95,WSW,248,0.0,0.0,84,0.00,CLR,,0.12,WeatherDisplay:10.37,2013-02-19 14:40:00,
2013-02-19 15:42:00,34.0,30.8,29.83,WNW,302,1.0,3.0,88,0.00,RA,,0.10,WeatherDisplay:10.37,2013-02-19 14:42:00,
2013-02-19 15:50:00,34.2,30.7,29.84,WNW,298,0.0,6.0,87,0.00,OVC,,0.10,WeatherDisplay:10.37,2013-02-19 14:50:00,
2013-02-19 16:00:00,34.2,30.7,29.83,West,270,0.0,0.0,87,0.00,-SN,,0.10,WeatherDisplay:10.37,2013-02-19 15:00:00,
2013-02-19 16:10:00,34.2,30.7,29.84,NW,313,1.0,2.0,87,0.00,-SN,,0.10,WeatherDisplay:10.37,2013-02-19 15:10:00,
2013-02-19 16:20:00,29.8,25.9,29.96,WSW,248,0.0,0.0,85,0.00,CLR,,0.12,WeatherDisplay:10.37,2013-02-19 15:20:00,
2013-02-19 16:30:00,29.8,25.9,29.96,WSW,248,0.0,1.0,85,0.00,CLR,,0.12,WeatherDisplay:10.37,2013-02-19 15:30:00,
2013-02-19 16:40:00,29.8,26.2,29.96,WSW,248,0.0,2.0,86,0.00,CLR,,0.12,WeatherDisplay:10.37,2013-02-19 15:40:00,
2013-02-19 16:50:00,29.8,26.2,29.97,WSW,248,2.0,3.0,86,0.00,CLR,,0.12,WeatherDisplay:10.37,2013-02-19 15:50:00,
2013-02-19 17:00:00,29.8,26.2,29.97,WSW,248,1.0,2.0,86,0.00,CLR,,0.12,WeatherDisplay:10.37,2013-02-19 16:00:00,
2013-02-19 17:10:00,29.8,26.2,29.97,WSW,248,2.0,3.0,86,0.00,CLR,,0.12,WeatherDisplay:10.37,2013-02-19 16:10:00,
2013-02-19 17:20:00,29.8,26.2,29.97,WSW,248,3.0,3.0,86,0.00,CLR,,0.12,WeatherDisplay:10.37,2013-02-19 16:20:00,
2013-02-19 23:30:00,29.8,26.2,29.97,WSW,248,0.0,1.0,86,0.00,FEW,,0.12,WeatherDisplay:10.37,2013-02-19 22:30:00,
2013-02-19 23:40:00,29.8,26.2,29.98,WSW,248,1.0,3.0,86,0.00,FEW,,0.12,WeatherDisplay:10.37,2013-02-19 22:40:00,
2013-02-19 23:50:00,29.7,25.7,29.98,WSW,248,0.0,2.0,85,0.00,FEW,,0.12,WeatherDisplay:10.37,2013-02-19 22:50:00,